Wind_Speed
14 16 21 16 16 16 9 11 14 12 9 7 7 10 6 13 7 12 13 14 9 18 16 14 19 10 4 3 4 6 5 1 1 2 1 2 4 3 2 5 6 7 13 18
18 26 20 17 19 14 12 24 29 7 5 4 5 9 9 16 10 5 9 13 9 3 19 18 19 2 5 2 2 4 5 6 2 2 3 5 6 6 3 5 8 12 14 15
22 22 18 19 22 22 17 17 17 19 8 14 8 11 13 16 5 8 10 9 10 7 14 20 18 2 2 6 4 3 2 4 4 2 3 5 6 5 5 7 9 11 13 15
23 19 23 25 20 24 25 23 18 7 7 10 14 18 11 13 15 18 20 12 19 8 26 23 14 8 4 8 5 3 4 4 3 2 2 3 3 4 5 7 8 10 13 12
23 25 23 24 28 19 14 14 15 7 14 17 15 10 10 17 19 14 15 11 20 6 30 25 16 8 2 7 4 2 4 4 3 2 2 2 3 5 9 10 9 13 15 13
19 18 23 23 22 24 23 15 22 12 14 8 24 6 19 18 19 15 8 12 13 7 18 28 13 11 3 6 4 2 3 3 4 4 3 1 2 6 8 11 13 15 19 20
24 23 24 24 26 22 20 26 5 13 8 3 16 13 6 11 16 11 6 9 12 18 21 21 15 8 5 2 4 2 3 3 3 2 1 1 2 7 10 12 12 15 16 15
21 21 23 19 24 24 18 23 14 7 3 1 20 11 6 6 13 8 10 14 14 17 13 9 7 10 9 3 4 2 1 0 1 1 1 2 4 7 11 11 10 9 10 10
21 28 19 20 22 24 26 23 22 1 2 3 13 17 24 15 13 11 12 20 17 15 12 9 10 9 7 5 3 3 2 4 4 3 4 4 6 9 11 9 9 9 11 14
32 25 23 22 20 20 23 24 16 14 5 3 8 12 12 20 11 7 18 21 19 16 14 12 8 8 9 7 5 2 4 6 7 7 6 5 5 10 14 7 5 7 11 13
23 24 29 18 30 22 23 23 19 17 13 6 1 1 10 9 9 12 23 22 21 20 14 13 10 10 9 8 4 2 4 6 7 7 6 5 5 11 11 10 10 11 12 15
22 18 23 25 15 27 27 24 27 26 18 23 10 14 22 20 5 19 23 24 21 23 20 17 12 10 8 7 3 3 4 3 1 2 5 6 6 10 9 13 13 15 17 20
20 26 25 28 25 17 23 26 28 31 27 28 9 14 13 17 14 3 18 20 30 24 14 20 16 14 9 7 6 5 5 5 4 4 5 5 7 9 11 14 17 17 17 20
24 17 21 22 18 12 8 12 19 25 27 6 16 24 20 14 8 6 5 20 21 26 19 32 20 15 10 11 8 7 5 5 5 6 6 5 8 8 12 15 17 17 19 21
13 22 22 21 20 12 22 28 17 27 19 2 6 13 18 11 17 11 15 4 24 15 26 35 8 19 21 14 14 10 8 5 6 7 8 7 9 9 12 16 18 17 20 24
22 22 25 24 18 15 22 30 32 33 14 10 5 14 11 14 19 14 13 12 15 15 24 16 18 22 26 21 17 15 13 9 9 10 10 10 10 12 13 17 18 19 24 27
13 19 21 30 23 16 20 28 15 5 9 7 20 21 14 11 22 18 15 16 12 16 15 20 20 21 25 24 20 21 16 12 9 11 13 14 16 14 16 20 20 25 28 28
20 28 22 22 13 3 25 26 23 21 16 14 11 19 13 10 9 14 17 17 13 15 17 17 18 18 25 23 18 16 18 15 12 9 16 25 21 16 14 10 25 29 31 29
21 27 24 18 19 12 17 22 25 22 15 8 3 20 18 21 25 20 19 20 22 13 12 15 19 21 24 21 15 5 15 12 12 13 14 13 22 22 16 16 26 27 26 25
25 17 31 16 10 7 21 11 6 20 13 3 18 21 34 28 28 16 18 22 23 20 18 18 20 22 22 19 18 12 10 10 11 11 9 13 15 16 15 22 26 22 21 21
25 24 34 32 22 15 19 17 17 7 11 17 21 23 28 25 5 10 13 24 18 18 20 21 22 21 23 21 15 13 10 8 13 17 9 15 16 19 21 25 23 23 20 19
28 21 17 32 32 7 14 16 11 17 12 18 26 23 13 7 6 11 17 10 14 13 12 13 15 13 13 14 15 12 12 13 13 4 9 12 17 22 25 25 24 21 20 21
8 9 15 9 11 15 15 14 24 24 20 15 12 7 3 2 3 4 5 3 3 4 5 8 8 12 14 15 11 10 12 10 7 9 13 16 21 23 22 19 17 18 19 20
10 14 9 4 12 10 7 9 18 32 26 18 9 11 5 3 2 0 1 1 1 4 6 6 7 11 13 13 14 15 6 5 8 11 16 20 24 23 19 17 17 18 17 17
8 9 19 10 5 14 11 7 7 4 6 11 20 13 5 6 6 5 2 2 1 2 5 6 2 2 6 8 8 5 6 8 10 15 20 24 24 21 19 19 18 18 17 18
7 14 12 11 14 3 15 7 15 13 17 23 20 15 5 10 5 5 1 4 3 7 7 5 4 3 2 4 5 6 8 11 15 18 22 27 26 23 22 21 22 21 18 16
Wind_Direction
219 228 244 234 239 257 269 266 245 220 269 237 284 300 140 172 207 232 271 272 346 200 206 196 263 288 262 330 346 15 10 299 221 240 301 257 249 3 56 58 343 337 331 331
219 228 234 240 249 243 250 273 256 229 234 265 310 286 209 185 214 277 292 292 296 181 186 200 243 22 31 287 315 20 41 32 348 305 261 266 278 292 3 330 335 346 336 329
226 228 230 242 250 251 234 253 290 200 275 287 258 277 166 179 124 241 242 258 265 318 192 184 222 107 53 71 105 73 113 72 60 24 322 290 281 283 281 306 327 336 319 325
227 232 233 236 249 251 250 251 311 253 241 266 278 241 211 220 230 288 254 255 235 312 191 192 219 228 84 51 87 96 110 130 109 69 10 315 312 283 292 298 312 315 333 318
230 234 241 243 242 251 242 263 284 234 279 300 280 231 225 211 249 261 226 247 239 109 190 200 213 239 305 37 65 116 95 97 114 61 39 325 321 326 323 341 326 326 321 324
236 234 238 243 247 241 242 242 268 285 270 296 12 328 179 208 243 260 200 201 215 264 154 193 208 225 290 31 69 134 106 93 137 144 122 71 331 332 332 324 329 314 311 328
242 245 240 247 257 244 255 203 131 266 277 212 3 355 166 208 274 223 184 179 153 156 158 171 193 217 295 359 89 116 111 129 132 131 106 42 340 330 333 326 311 308 320 327
239 253 244 236 235 244 258 246 237 216 124 273 329 309 274 269 212 189 192 183 187 179 180 199 234 275 275 185 112 105 77 111 183 183 238 252 298 326 324 319 335 352 349 350
240 236 233 234 232 234 248 256 242 86 71 52 281 228 264 262 205 204 195 191 185 184 184 225 255 277 182 183 145 190 281 293 296 288 277 286 303 336 344 351 32 28 26 18
244 271 252 233 221 230 237 254 283 274 165 177 277 245 178 191 216 213 195 188 187 190 197 226 246 173 165 157 142 148 271 291 294 283 272 268 344 4 348 358 26 1 344 352
248 253 261 275 221 217 224 235 218 256 239 162 229 119 180 191 218 205 192 193 192 200 201 212 230 163 160 153 154 191 257 288 288 269 255 250 281 322 335 331 332 346 345 346
238 251 269 270 267 222 222 222 236 225 256 244 178 192 171 205 121 181 180 187 207 201 193 217 223 216 173 177 164 245 284 332 288 245 237 245 318 329 322 331 348 358 353 348
230 237 254 273 282 233 212 229 232 234 247 254 138 168 175 202 206 198 288 166 186 146 178 219 235 241 215 209 218 233 283 334 327 265 240 229 316 329 330 350 352 351 347 343
229 243 243 252 269 260 243 235 252 254 262 126 153 179 169 163 201 155 130 185 231 255 203 215 241 274 264 239 230 246 271 302 291 245 227 246 305 313 336 336 336 334 334 332
220 250 254 270 264 297 244 251 277 288 249 182 226 196 178 191 174 200 184 178 216 209 192 221 246 294 277 281 245 232 252 273 252 240 215 250 282 296 312 316 317 320 325 325
233 247 246 259 254 263 220 240 279 277 226 153 201 192 186 175 198 207 187 194 198 183 212 246 299 292 282 269 261 234 238 241 241 242 229 249 269 277 295 306 312 315 319 320
243 235 237 253 262 231 250 247 251 253 166 161 180 178 169 176 179 173 191 190 204 214 237 269 276 276 278 276 268 246 241 236 238 253 247 254 259 274 296 304 313 317 318 318
283 243 232 240 212 233 250 199 232 292 250 228 190 189 175 166 190 152 173 187 211 230 238 253 268 281 269 271 254 248 241 239 230 255 299 290 256 265 278 308 319 318 318 319
268 231 225 212 202 245 259 208 265 251 204 180 220 187 164 135 133 144 173 183 205 237 236 256 268 271 259 256 224 246 238 241 241 273 324 322 285 277 297 325 316 315 316 312
236 265 212 224 183 203 225 249 269 189 170 105 192 189 160 155 143 149 167 210 210 224 236 250 258 257 267 262 253 248 243 225 282 311 322 320 313 302 332 319 315 312 309 316
289 277 210 216 231 213 187 222 236 200 62 153 142 143 162 177 209 147 135 192 196 218 237 253 261 264 269 267 263 238 235 279 318 338 282 303 311 320 317 315 319 324 325 317
291 312 283 216 228 218 224 216 196 146 140 146 142 144 166 171 173 145 168 185 214 241 254 273 281 250 251 259 268 242 253 296 326 315 312 313 316 318 320 321 321 320 314 316
273 1 330 312 206 224 207 229 226 200 177 65 127 115 342 315 181 175 178 194 249 274 262 257 259 261 252 260 248 258 304 305 276 302 313 311 310 315 317 315 314 307 309 309
240 16 350 5 138 122 102 160 213 232 229 231 303 313 288 221 148 155 143 159 326 276 273 246 242 242 250 246 260 283 271 244 282 303 304 312 323 323 322 320 317 313 317 315
249 60 36 328 240 164 161 175 258 200 175 168 234 270 319 197 186 176 211 288 351 353 293 305 287 235 248 263 251 218 244 275 297 303 313 322 329 328 324 322 324 324 323 322
253 211 357 357 356 79 178 167 191 173 198 200 220 250 202 181 189 191 209 76 54 17 16 350 336 321 290 232 227 239 273 295 301 307 316 326 330 325 324 325 322 322 324 326
Height
3174 3177 3176 3177 3177 3181 3181 3183 3178 3178 3180 3180 3179 3179 3178 3178 3177 3180 3180 3180 3181 3182 3183 3183 3187 3187 3187 3189 3190 3190 3189 3189 3190 3193 3194 3195 3194 3196 3195 3195 3197 3196 3196 3193
3173 3171 3175 3175 3176 3182 3179 3178 3177 3182 3179 3179 3178 3179 3178 3176 3178 3177 3177 3181 3180 3183 3183 3184 3184 3184 3186 3189 3189 3188 3189 3189 3190 3193 3194 3193 3192 3193 3193 3193 3193 3192 3191 3189
3168 3171 3173 3174 3174 3177 3177 3173 3175 3178 3177 3176 3176 3178 3180 3180 3174 3175 3177 3179 3178 3180 3184 3183 3184 3182 3185 3187 3188 3188 3188 3189 3192 3193 3193 3192 3192 3192 3193 3192 3190 3189 3188 3187
3165 3168 3170 3172 3172 3173 3173 3173 3175 3175 3174 3173 3174 3176 3177 3175 3174 3170 3171 3174 3178 3186 3185 3187 3188 3185 3185 3185 3185 3188 3189 3190 3190 3192 3192 3192 3193 3193 3192 3191 3191 3188 3187 3184
3161 3163 3166 3167 3170 3170 3172 3173 3173 3172 3171 3172 3172 3171 3169 3172 3171 3171 3170 3172 3172 3156 3180 3187 3189 3187 3185 3185 3184 3186 3188 3188 3188 3189 3191 3192 3192 3192 3191 3190 3188 3187 3183 3181
3160 3161 3162 3164 3165 3168 3168 3172 3172 3169 3169 3171 3171 3166 3167 3169 3168 3170 3167 3170 3173 3164 3171 3186 3188 3186 3185 3184 3184 3186 3187 3187 3187 3188 3189 3190 3191 3191 3190 3188 3186 3183 3179 3178
3156 3157 3157 3161 3161 3162 3166 3171 3167 3176 3171 3172 3169 3168 3166 3169 3169 3169 3169 3171 3172 3174 3181 3182 3184 3182 3182 3184 3185 3186 3187 3187 3187 3188 3189 3189 3190 3190 3188 3186 3183 3180 3178 3177
3153 3154 3154 3156 3158 3159 3160 3163 3164 3169 3172 3169 3169 3171 3169 3169 3168 3170 3171 3172 3174 3174 3176 3177 3178 3179 3182 3183 3185 3185 3186 3186 3186 3187 3187 3188 3188 3188 3186 3183 3181 3180 3178 3177
3150 3150 3151 3152 3154 3158 3157 3158 3162 3165 3166 3165 3169 3169 3167 3164 3168 3169 3170 3171 3171 3173 3175 3175 3177 3179 3180 3182 3183 3184 3184 3185 3186 3186 3186 3187 3187 3187 3185 3182 3180 3180 3178 3176
3143 3148 3146 3148 3150 3152 3153 3157 3158 3159 3169 3168 3163 3164 3164 3166 3164 3167 3169 3170 3172 3173 3176 3178 3179 3178 3179 3181 3182 3183 3183 3183 3183 3183 3184 3185 3185 3185 3183 3182 3181 3179 3178 3175
3142 3147 3139 3145 3144 3147 3151 3151 3154 3159 3162 3159 3165 3166 3161 3166 3164 3165 3161 3165 3170 3171 3173 3175 3178 3178 3178 3179 3181 3182 3181 3181 3182 3182 3183 3183 3183 3182 3182 3182 3180 3177 3175 3173
3139 3141 3138 3138 3140 3141 3144 3147 3150 3154 3152 3149 3153 3160 3160 3164 3163 3162 3166 3162 3164 3164 3170 3173 3175 3177 3178 3177 3177 3179 3179 3180 3181 3181 3182 3183 3183 3182 3182 3181 3177 3175 3173 3170
3138 3137 3138 3136 3136 3135 3138 3142 3145 3146 3146 3145 3150 3160 3159 3159 3159 3162 3159 3166 3158 3158 3175 3173 3173 3175 3177 3176 3176 3177 3178 3178 3180 3179 3181 3181 3181 3180 3181 3179 3176 3174 3172 3169
3133 3134 3135 3136 3137 3138 3136 3136 3137 3142 3142 3144 3146 3150 3153 3157 3160 3159 3161 3159 3157 3157 3163 3166 3168 3174 3176 3175 3175 3175 3176 3177 3178 3178 3179 3180 3180 3179 3179 3178 3176 3174 3171 3167
3130 3131 3133 3133 3133 3134 3140 3134 3134 3136 3140 3140 3146 3149 3149 3152 3153 3158 3158 3158 3148 3151 3153 3157 3159 3166 3170 3172 3170 3171 3171 3172 3173 3173 3175 3176 3176 3177 3176 3176 3174 3171 3169 3165
3125 3128 3130 3132 3132 3130 3133 3131 3134 3131 3132 3133 3140 3148 3149 3148 3149 3152 3154 3152 3147 3150 3159 3155 3159 3165 3165 3165 3166 3166 3165 3165 3167 3168 3170 3172 3172 3172 3171 3170 3169 3167 3165 3161
3123 3125 3127 3128 3131 3128 3127 3127 3128 3129 3126 3128 3134 3143 3144 3145 3143 3147 3151 3154 3158 3160 3160 3161 3162 3162 3162 3163 3164 3167 3167 3168 3165 3164 3167 3167 3167 3168 3167 3166 3165 3163 3159 3155
3120 3122 3124 3126 3126 3125 3122 3123 3124 3126 3125 3125 3129 3134 3138 3144 3144 3146 3150 3155 3159 3160 3160 3160 3159 3156 3159 3159 3158 3161 3160 3162 3165 3164 3166 3164 3162 3161 3160 3159 3160 3157 3153 3149
3115 3118 3119 3122 3124 3122 3119 3124 3125 3117 3122 3121 3124 3128 3138 3143 3144 3150 3152 3154 3155 3157 3158 3159 3158 3154 3152 3152 3150 3146 3159 3160 3163 3161 3160 3161 3162 3159 3157 3155 3156 3152 3149 3146
3107 3114 3115 3117 3119 3120 3114 3118 3117 3117 3119 3117 3122 3128 3133 3137 3139 3150 3150 3152 3153 3155 3155 3156 3153 3150 3148 3150 3153 3156 3156 3159 3159 3157 3156 3157 3157 3157 3152 3152 3151 3148 3144 3140
3110 3107 3107 3110 3112 3114 3114 3118 3114 3117 3124 3121 3123 3128 3132 3133 3136 3139 3138 3145 3153 3151 3149 3147 3148 3148 3144 3143 3147 3150 3152 3152 3150 3150 3152 3153 3152 3151 3149 3147 3144 3140 3138 3135
3111 3109 3104 3103 3103 3108 3108 3111 3114 3114 3119 3125 3122 3123 3134 3132 3133 3133 3138 3143 3144 3145 3145 3143 3142 3145 3144 3144 3142 3144 3146 3146 3147 3148 3149 3150 3149 3147 3144 3140 3138 3136 3134 3132
3116 3108 3104 3105 3099 3103 3106 3108 3107 3111 3113 3099 3118 3120 3127 3132 3134 3137 3140 3140 3139 3140 3140 3138 3140 3140 3140 3140 3140 3142 3143 3144 3146 3146 3147 3147 3146 3142 3140 3137 3135 3133 3131 3128
3107 3102 3105 3104 3102 3102 3109 3108 3109 3106 3112 3124 3125 3122 3128 3134 3133 3133 3135 3137 3136 3137 3137 3134 3135 3135 3136 3137 3137 3138 3141 3143 3144 3144 3144 3144 3141 3137 3134 3132 3131 3128 3125 3122
3107 3105 3101 3108 3106 3106 3109 3113 3115 3112 3115 3116 3126 3124 3126 3129 3130 3132 3135 3134 3135 3137 3136 3135 3133 3133 3134 3135 3136 3137 3139 3140 3141 3141 3139 3137 3135 3132 3129 3127 3125 3122 3120 3117
3108 3106 3103 3109 3106 3107 3111 3113 3117 3117 3113 3120 3123 3125 3127 3128 3128 3128 3128 3127 3131 3134 3135 3134 3132 3132 3132 3133 3134 3135 3136 3137 3137 3137 3134 3131 3129 3126 3123 3121 3119 3117 3115 3113